Avon, Pennsylvania
Current Conditions -  °F | °C
As of 3:58 AM on Saturday 25 Oct 2014 (Local Time) from KMUI Reporting Station
Clear Clear  
Wind Chill: 55°   Ceiling: Unl
Heat Index: 55°   Visibility: 10mi
Dew Point: 40°   Wind: 5mph
Humidity: 57%   Direction: NA
Pressure: 29.92"   Gusts: NA
Location:  40.2957°N, 76.4189°W
Report Text: KMUI 250758Z AUTO VRB04KT 10SM CLR 13/05 A2992 RMK AO2 SLP134 T01290046 $
Loading
Personal Weather Stations






























Interactive Weather Map
Tropical Storm Tracking
New forecast layout! Learn more

10-Day Weather Forecast

Advertisements
Track Severe Weather on mobile